Weather History for Indiana, PA

Change the Weather History Date:

Friday, February 22, 2013

  Actual Average Record
Temperature  
Mean Temperature 22 °F -  
Max Temperature 30 °F 48 °F 66 °F (1990)
Min Temperature 15 °F 22 °F -8 °F (1963)
Degree Days  
Heating Degree Days 42    
Moisture  
Dew Point 24 °F    
Average Humidity 91    
Maximum Humidity 100    
Minimum Humidity 69    
Precipitation  
Precipitation 0.00 in - - ()
Sea Level Pressure  
Sea Level Pressure 30.10 in    
Wind  
Wind Speed 6 mph (SE)    
Max Wind Speed 14 mph    
Max Gust Speed 24 mph    
Visibility 9 miles    
Events      
Averages and records for this station are not official NWS values.
T = Trace of Precipitation, MM = Missing Value Source: NWS Daily Summary

Daily Weather History Graph

Daily Weather History Graph

Search for Another Location

Airport:

Trip Planner

Search our weather history database for the weather conditions in past years. The results will help you decide how hot, cold, wet, or windy it might be!

Date:

Astronomy

Feb. 22, 2013 Rise Set
Actual Time 7:00 AM EST 6:00 PM EST
Civil Twilight 6:32 AM EST 6:27 PM EST
Nautical Twilight 6:00 AM EST 6:59 PM EST
Astronomical Twilight 5:29 AM EST 7:31 PM EST
Moon 3:09 PM EST (2/22) 4:45 AM EST (2/22)
Length of Visible Light 11h 55m
Length of Day
10h 59m
Waxing Gibbous, 90% of the Moon is Illuminated
Feb 22
Waxing Gibbous
Feb 25
Full
Mar 4
Last Quarter
Mar 11
New
Mar 19
First Quarter

Hourly Weather History & Observations

Time (EST) Temp. Windchill Dew Point Humidity Pressure Visibility Wind Dir Wind Speed Gust Speed Precip Events Conditions
12:15 AM 15.8 °F - 15.8 °F 100% 30.24 in 10.0 mi Calm Calm - N/A   Unknown
12:35 AM 17.6 °F - 15.8 °F 93% 30.24 in 10.0 mi Calm Calm - N/A   Unknown
12:55 AM 17.6 °F 12.3 °F 15.8 °F 93% 30.23 in 10.0 mi East 3.5 mph - N/A   Unknown
1:15 AM 17.6 °F - 15.8 °F 93% 30.24 in 10.0 mi Calm Calm - N/A   Unknown
1:35 AM 17.6 °F - 15.8 °F 93% 30.22 in 10.0 mi Calm Calm - N/A   Unknown
1:55 AM 19.4 °F 12.8 °F 15.8 °F 86% 30.23 in 10.0 mi East 4.6 mph - N/A   Unknown
2:15 AM 19.4 °F 10.4 °F 15.8 °F 86% 30.22 in 10.0 mi East 6.9 mph - N/A   Unknown
2:35 AM 19.4 °F - 15.8 °F 86% 30.24 in 10.0 mi Calm Calm - N/A   Unknown
2:55 AM 19.4 °F - 17.6 °F 93% 30.25 in 10.0 mi Calm Calm - N/A   Unknown
3:15 AM 19.4 °F - 17.6 °F 93% 30.22 in 10.0 mi Calm Calm - N/A   Unknown
3:35 AM 21.2 °F 13.6 °F 17.6 °F 86% 30.24 in 10.0 mi ESE 5.8 mph - N/A   Unknown
3:55 AM 21.2 °F 11.7 °F 17.6 °F 86% 30.21 in 10.0 mi East 8.1 mph - N/A   Unknown
4:35 AM 21.2 °F 16.4 °F 17.6 °F 86% 30.20 in 10.0 mi ESE 3.5 mph - N/A   Unknown
4:55 AM 23.0 °F 13.1 °F 17.6 °F 80% 30.20 in 10.0 mi ESE 9.2 mph 16.1 mph N/A   Unknown
5:15 AM 23.0 °F 13.1 °F 17.6 °F 80% 30.20 in 10.0 mi East 9.2 mph - N/A   Unknown
5:35 AM 23.0 °F 13.9 °F 17.6 °F 80% 30.19 in 10.0 mi ESE 8.1 mph - N/A   Unknown
5:55 AM 24.8 °F 16.1 °F 17.6 °F 74% 30.21 in 10.0 mi ESE 8.1 mph - N/A   Unknown
6:15 AM 24.8 °F 13.4 °F 17.6 °F 74% 30.19 in 10.0 mi ESE 12.7 mph 17.3 mph N/A   Unknown
6:35 AM 24.8 °F 15.3 °F 17.6 °F 74% 30.18 in 10.0 mi ESE 9.2 mph - N/A   Unknown
6:55 AM 26.6 °F 17.5 °F 19.4 °F 74% 30.15 in 10.0 mi ESE 9.2 mph 17.3 mph N/A   Unknown
7:15 AM 26.6 °F 17.5 °F 19.4 °F 74% 30.16 in 10.0 mi ESE 9.2 mph - N/A   Unknown
7:35 AM 28.4 °F 19.7 °F 19.4 °F 69% 30.16 in 10.0 mi ESE 9.2 mph 17.3 mph N/A   Unknown
7:55 AM 28.4 °F 18.0 °F 19.4 °F 69% 30.14 in 10.0 mi SE 12.7 mph 20.7 mph N/A   Unknown
8:35 AM 28.4 °F 19.1 °F 19.4 °F 69% 30.12 in 10.0 mi SE 10.4 mph 20.7 mph N/A   Unknown
8:55 AM 28.4 °F 18.0 °F 19.4 °F 69% 30.12 in 10.0 mi ESE 12.7 mph 19.6 mph N/A   Unknown
9:15 AM 28.4 °F 21.2 °F 19.4 °F 69% 30.12 in 10.0 mi SE 6.9 mph 16.1 mph N/A   Unknown
9:35 AM 28.4 °F 18.5 °F 21.2 °F 74% 30.11 in 10.0 mi SE 11.5 mph 18.4 mph N/A   Unknown
9:55 AM 30.2 °F 20.8 °F 21.2 °F 69% 30.11 in 10.0 mi SE 11.5 mph 19.6 mph N/A   Unknown
10:15 AM 30.2 °F 20.2 °F 21.2 °F 69% 30.10 in 10.0 mi SE 12.7 mph 18.4 mph N/A   Unknown
10:35 AM 28.4 °F 19.1 °F 21.2 °F 74% 30.11 in 10.0 mi SE 10.4 mph 23.0 mph N/A   Unknown
10:55 AM 28.4 °F 18.5 °F 23.0 °F 80% 30.10 in 5.0 mi SE 11.5 mph 18.4 mph N/A   Unknown
11:15 AM 28.4 °F 18.0 °F 24.8 °F 86% 30.10 in 7.0 mi SE 12.7 mph 20.7 mph N/A   Unknown
11:35 AM 28.4 °F 19.1 °F 26.6 °F 93% 30.09 in 3.0 mi SE 10.4 mph 23.0 mph N/A   Unknown
11:55 AM 28.4 °F 17.5 °F 26.6 °F 93% 30.09 in 10.0 mi SSE 13.8 mph 24.2 mph N/A   Unknown
12:15 PM 28.4 °F 18.5 °F 26.6 °F 93% 30.08 in 5.0 mi SSE 11.5 mph 19.6 mph N/A   Unknown
12:35 PM 28.4 °F 19.1 °F 26.6 °F 93% 30.07 in 5.0 mi SSE 10.4 mph 23.0 mph N/A   Unknown
12:55 PM 28.4 °F 20.4 °F 28.4 °F 100% 30.06 in 2.5 mi SSE 8.1 mph 21.9 mph N/A   Unknown
1:15 PM 28.4 °F 18.0 °F 28.4 °F 100% 30.06 in 2.5 mi SSE 12.7 mph 18.4 mph N/A   Unknown
1:35 PM 28.4 °F 18.0 °F 28.4 °F 100% 30.05 in 4.0 mi SSE 12.7 mph 21.9 mph N/A   Unknown
1:55 PM 28.4 °F 20.4 °F 28.4 °F 100% 30.05 in 4.0 mi SSE 8.1 mph 18.4 mph N/A   Unknown
2:15 PM 28.4 °F 18.0 °F 28.4 °F 100% 30.04 in 7.0 mi SSE 12.7 mph 18.4 mph N/A   Unknown
2:35 PM 28.4 °F 19.1 °F 28.4 °F 100% 30.04 in 10.0 mi SE 10.4 mph 17.3 mph N/A   Unknown
2:55 PM 28.4 °F 19.7 °F 28.4 °F 100% 30.04 in 10.0 mi SE 9.2 mph - N/A   Unknown
3:15 PM 28.4 °F 20.4 °F 28.4 °F 100% 30.04 in 7.0 mi SE 8.1 mph - N/A   Unknown
3:35 PM 28.4 °F 18.5 °F 28.4 °F 100% 30.03 in 10.0 mi SSE 11.5 mph 19.6 mph N/A   Unknown
3:55 PM 30.2 °F 20.8 °F 30.2 °F 100% 30.03 in 10.0 mi SE 11.5 mph 16.1 mph N/A   Unknown
4:15 PM 30.2 °F 20.2 °F 30.2 °F 100% 30.03 in 10.0 mi SE 12.7 mph 16.1 mph N/A   Unknown
4:35 PM 30.2 °F 21.3 °F 30.2 °F 100% 30.03 in 10.0 mi SE 10.4 mph 17.3 mph N/A   Unknown
4:55 PM 30.2 °F 21.3 °F 30.2 °F 100% 30.03 in 10.0 mi SE 10.4 mph - N/A   Unknown
5:15 PM 30.2 °F 21.3 °F 30.2 °F 100% 30.02 in 10.0 mi SE 10.4 mph 17.3 mph N/A   Unknown
5:35 PM 30.2 °F 21.3 °F 30.2 °F 100% 30.02 in 10.0 mi ESE 10.4 mph - N/A   Unknown
5:55 PM 30.2 °F 21.9 °F 30.2 °F 100% 30.03 in 10.0 mi SE 9.2 mph - N/A   Unknown
6:15 PM 30.2 °F 21.3 °F 30.2 °F 100% 30.02 in 10.0 mi SE 10.4 mph 17.3 mph N/A   Unknown
6:35 PM 30.2 °F 20.2 °F 30.2 °F 100% 30.03 in 10.0 mi SE 12.7 mph - N/A   Unknown
6:55 PM 30.2 °F 20.8 °F 30.2 °F 100% 30.02 in 10.0 mi SE 11.5 mph - N/A   Unknown
7:15 PM 30.2 °F 21.9 °F 30.2 °F 100% 30.02 in 10.0 mi SE 9.2 mph 16.1 mph N/A   Unknown
7:35 PM 30.2 °F 23.4 °F 30.2 °F 100% 30.02 in 10.0 mi SE 6.9 mph - N/A   Unknown
7:55 PM 30.2 °F 20.8 °F 30.2 °F 100% 30.02 in 10.0 mi SE 11.5 mph - N/A   Unknown
8:15 PM 30.2 °F 22.6 °F 30.2 °F 100% 30.02 in 10.0 mi ESE 8.1 mph - N/A   Unknown
8:35 PM 30.2 °F 22.6 °F 30.2 °F 100% 30.02 in 10.0 mi SE 8.1 mph - N/A   Unknown
8:55 PM 30.2 °F 21.3 °F 30.2 °F 100% 30.03 in 10.0 mi SE 10.4 mph - N/A   Unknown
9:15 PM 30.2 °F 19.8 °F 30.2 °F 100% 30.03 in 10.0 mi SE 13.8 mph - N/A   Unknown
9:35 PM 30.2 °F 20.8 °F 30.2 °F 100% 30.02 in 10.0 mi SE 11.5 mph - N/A   Unknown
9:55 PM 30.2 °F 20.8 °F 30.2 °F 100% 30.02 in 10.0 mi SE 11.5 mph 19.6 mph N/A   Unknown
10:15 PM 30.2 °F 26.7 °F 30.2 °F 100% 30.03 in 10.0 mi SSE 3.5 mph 19.6 mph N/A   Unknown
10:35 PM 30.2 °F 23.4 °F 30.2 °F 100% 30.02 in 10.0 mi SE 6.9 mph - N/A   Unknown
10:55 PM 30.2 °F - 30.2 °F 100% 30.02 in 10.0 mi Calm Calm - N/A   Unknown
11:15 PM 30.2 °F 24.3 °F 30.2 °F 100% 30.02 in 10.0 mi SSE 5.8 mph - N/A   Unknown
11:35 PM 30.2 °F 23.4 °F 30.2 °F 100% 30.01 in 10.0 mi SE 6.9 mph - N/A   Unknown
11:55 PM 30.2 °F 22.6 °F 30.2 °F 100% 30.02 in 10.0 mi SSE 8.1 mph - N/A   Unknown